Time,TemperatureF,DewpointF,PressureIn,WindDirection,WindDirectionDegrees,WindSpeedMPH,WindSpeedGustMPH,Humidity,HourlyPrecipIn,Conditions,Clouds,dailyrainin,SolarRadiationWatts/m^2,SoftwareType,DateUTC
2013-04-25 00:00:00,37.0,21.0,-100.00,SSW,202,0.0,-999.0,52,-99.99,,,-99.99,0.000000,,2013-04-25 04:00:00,
2013-04-25 00:43:00,37.0,21.0,-100.00,SSW,202,0.0,-999.0,52,-99.99,,,-99.99,0.000000,,2013-04-25 04:43:00,
2013-04-25 00:52:00,37.0,21.0,-100.00,SSW,202,0.0,-999.0,52,-99.99,,,-99.99,0.000000,,2013-04-25 04:52:00,
2013-04-25 01:00:00,36.0,24.0,-100.00,SSW,202,0.0,-999.0,60,-99.99,,,-99.99,0.000000,,2013-04-25 05:00:00,
2013-04-25 01:42:00,36.0,24.0,-100.00,SSW,202,0.0,-999.0,60,-99.99,,,-99.99,0.000000,,2013-04-25 05:42:00,
2013-04-25 01:52:00,36.0,24.0,-100.00,SSW,202,0.0,-999.0,60,-99.99,,,-99.99,0.000000,,2013-04-25 05:52:00,
2013-04-25 03:00:00,36.0,24.0,-100.00,South,180,1.0,-999.0,61,-99.99,,,-99.99,0.000000,,2013-04-25 07:00:00,
2013-04-25 03:42:00,36.0,24.0,-100.00,South,180,1.0,-999.0,61,-99.99,,,-99.99,0.000000,,2013-04-25 07:42:00,
2013-04-25 03:53:00,36.0,24.0,-100.00,South,180,1.0,-999.0,61,-99.99,,,-99.99,0.000000,,2013-04-25 07:53:00,
2013-04-25 04:00:00,36.0,24.0,-100.00,South,180,1.0,-999.0,61,-99.99,,,-99.99,0.000000,,2013-04-25 08:00:00,
2013-04-25 04:42:00,36.0,24.0,-100.00,South,180,1.0,-999.0,61,-99.99,,,-99.99,0.000000,,2013-04-25 08:42:00,
2013-04-25 04:52:00,36.0,24.0,-100.00,South,180,1.0,-999.0,61,-99.99,,,-99.99,0.000000,,2013-04-25 08:52:00,
2013-04-25 05:00:00,37.0,25.0,-100.00,South,180,1.0,-999.0,61,-99.99,,,-99.99,0.000000,,2013-04-25 09:00:00,
2013-04-25 05:42:00,37.0,25.0,-100.00,South,180,1.0,-999.0,61,-99.99,,,-99.99,0.000000,,2013-04-25 09:42:00,
2013-04-25 05:53:00,37.0,25.0,-100.00,South,180,1.0,-999.0,61,-99.99,,,-99.99,0.000000,,2013-04-25 09:53:00,
2013-04-25 06:00:00,38.0,29.0,-100.00,SSW,202,4.0,-999.0,69,-99.99,,,-99.99,0.000000,,2013-04-25 10:00:00,
2013-04-25 06:42:00,38.0,29.0,-100.00,SSW,202,4.0,-999.0,69,-99.99,,,-99.99,0.000000,,2013-04-25 10:42:00,
2013-04-25 06:53:00,38.0,29.0,-100.00,SSW,202,4.0,-999.0,69,-99.99,,,-99.99,0.000000,,2013-04-25 10:53:00,
2013-04-25 07:00:00,38.0,33.0,-100.00,SSW,202,3.0,-999.0,82,-99.99,,,-99.99,1.160000,,2013-04-25 11:00:00,
2013-04-25 07:42:00,38.0,33.0,-100.00,SSW,202,3.0,-999.0,82,-99.99,,,-99.99,1.160000,,2013-04-25 11:42:00,
2013-04-25 07:52:00,38.0,33.0,-100.00,SSW,202,3.0,-999.0,82,-99.99,,,-99.99,1.160000,,2013-04-25 11:52:00,
2013-04-25 09:00:00,38.0,33.0,-100.00,SW,225,8.0,-999.0,82,-99.99,,,-99.99,31.320000,,2013-04-25 13:00:00,
2013-04-25 09:42:00,38.0,33.0,-100.00,SW,225,8.0,-999.0,82,-99.99,,,-99.99,31.320000,,2013-04-25 13:42:00,
2013-04-25 09:53:00,38.0,33.0,-100.00,SW,225,8.0,-999.0,82,-99.99,,,-99.99,31.320000,,2013-04-25 13:53:00,
2013-04-25 10:00:00,36.0,32.0,-100.00,WSW,247,9.0,-999.0,83,-99.99,,,-99.99,47.560001,,2013-04-25 14:00:00,
2013-04-25 10:42:00,36.0,32.0,-100.00,WSW,247,9.0,-999.0,83,-99.99,,,-99.99,47.560001,,2013-04-25 14:42:00,
2013-04-25 10:52:00,36.0,32.0,-100.00,WSW,247,9.0,-999.0,83,-99.99,,,-99.99,47.560001,,2013-04-25 14:52:00,
2013-04-25 12:00:00,36.0,32.0,-100.00,West,270,6.0,-999.0,86,-99.99,,,-99.99,177.479996,,2013-04-25 16:00:00,
2013-04-25 12:43:00,36.0,32.0,-100.00,West,270,6.0,-999.0,86,-99.99,,,-99.99,177.479996,,2013-04-25 16:43:00,
2013-04-25 12:53:00,36.0,32.0,-100.00,West,270,6.0,-999.0,86,-99.99,,,-99.99,177.479996,,2013-04-25 16:53:00,
2013-04-25 13:00:00,37.0,30.0,-100.00,ENE,67,9.0,-999.0,75,-99.99,,,-99.99,191.399994,,2013-04-25 17:00:00,
2013-04-25 13:42:00,37.0,30.0,-100.00,ENE,67,9.0,-999.0,75,-99.99,,,-99.99,191.399994,,2013-04-25 17:42:00,
2013-04-25 13:53:00,37.0,30.0,-100.00,ENE,67,9.0,-999.0,75,-99.99,,,-99.99,191.399994,,2013-04-25 17:53:00,
2013-04-25 14:00:00,37.0,31.0,-100.00,NNE,22,8.0,-999.0,78,-99.99,,,-99.99,163.559998,,2013-04-25 18:00:00,
2013-04-25 14:43:00,37.0,31.0,-100.00,NNE,22,8.0,-999.0,78,-99.99,,,-99.99,163.559998,,2013-04-25 18:43:00,
2013-04-25 14:53:00,37.0,31.0,-100.00,NNE,22,8.0,-999.0,78,-99.99,,,-99.99,163.559998,,2013-04-25 18:53:00,
2013-04-25 15:00:00,39.0,30.0,-100.00,NNE,22,9.0,-999.0,69,-99.99,,,-99.99,379.320007,,2013-04-25 19:00:00,
2013-04-25 15:42:00,39.0,30.0,-100.00,NNE,22,9.0,-999.0,69,-99.99,,,-99.99,379.320007,,2013-04-25 19:42:00,
2013-04-25 15:52:00,39.0,30.0,-100.00,NNE,22,9.0,-999.0,69,-99.99,,,-99.99,379.320007,,2013-04-25 19:52:00,
2013-04-25 16:00:00,43.0,30.0,-100.00,NNE,22,9.0,-999.0,60,-99.99,,,-99.99,696.000000,,2013-04-25 20:00:00,
2013-04-25 16:43:00,43.0,30.0,-100.00,NNE,22,9.0,-999.0,60,-99.99,,,-99.99,696.000000,,2013-04-25 20:43:00,
2013-04-25 16:52:00,43.0,30.0,-100.00,NNE,22,9.0,-999.0,60,-99.99,,,-99.99,696.000000,,2013-04-25 20:52:00,
2013-04-25 17:00:00,44.0,29.0,-100.00,NNE,22,8.0,-999.0,55,-99.99,,,-99.99,436.160004,,2013-04-25 21:00:00,
2013-04-25 17:42:00,44.0,29.0,-100.00,NNE,22,8.0,-999.0,55,-99.99,,,-99.99,436.160004,,2013-04-25 21:42:00,
2013-04-25 17:53:00,44.0,29.0,-100.00,NNE,22,8.0,-999.0,55,-99.99,,,-99.99,436.160004,,2013-04-25 21:53:00,
2013-04-25 18:00:00,45.0,29.0,-100.00,NNE,22,9.0,-999.0,52,-99.99,,,-99.99,474.440002,,2013-04-25 22:00:00,
2013-04-25 18:42:00,45.0,29.0,-100.00,NNE,22,9.0,-999.0,52,-99.99,,,-99.99,474.440002,,2013-04-25 22:42:00,
2013-04-25 18:53:00,45.0,29.0,-100.00,NNE,22,9.0,-999.0,52,-99.99,,,-99.99,474.440002,,2013-04-25 22:53:00,
2013-04-25 19:00:00,45.0,27.0,-100.00,NNE,22,7.0,-999.0,49,-99.99,,,-99.99,303.920013,,2013-04-25 23:00:00,
2013-04-25 19:42:00,45.0,27.0,-100.00,NNE,22,7.0,-999.0,49,-99.99,,,-99.99,303.920013,,2013-04-25 23:42:00,
2013-04-25 19:52:00,45.0,27.0,-100.00,NNE,22,7.0,-999.0,49,-99.99,,,-99.99,303.920013,,2013-04-25 23:52:00,
2013-04-25 20:00:00,44.0,27.0,-100.00,NNE,22,5.0,-999.0,51,-99.99,,,-99.99,134.559998,,2013-04-26 00:00:00,
2013-04-25 20:42:00,44.0,27.0,-100.00,NNE,22,5.0,-999.0,51,-99.99,,,-99.99,134.559998,,2013-04-26 00:42:00,
2013-04-25 20:52:00,44.0,27.0,-100.00,NNE,22,5.0,-999.0,51,-99.99,,,-99.99,134.559998,,2013-04-26 00:52:00,
2013-04-25 21:00:00,41.0,27.0,-100.00,NNE,22,1.0,-999.0,58,-99.99,,,-99.99,13.920000,,2013-04-26 01:00:00,
2013-04-25 21:42:00,41.0,27.0,-100.00,NNE,22,1.0,-999.0,58,-99.99,,,-99.99,13.920000,,2013-04-26 01:42:00,
2013-04-25 21:52:00,41.0,27.0,-100.00,NNE,22,1.0,-999.0,58,-99.99,,,-99.99,13.920000,,2013-04-26 01:52:00,
2013-04-25 22:00:00,36.0,28.0,-100.00,ENE,67,1.0,-999.0,70,-99.99,,,-99.99,0.000000,,2013-04-26 02:00:00,
2013-04-25 22:42:00,36.0,28.0,-100.00,ENE,67,1.0,-999.0,70,-99.99,,,-99.99,0.000000,,2013-04-26 02:42:00,
2013-04-25 22:52:00,36.0,28.0,-100.00,ENE,67,1.0,-999.0,70,-99.99,,,-99.99,0.000000,,2013-04-26 02:52:00,
2013-04-25 23:00:00,36.0,27.0,-100.00,East,90,1.0,-999.0,69,-99.99,,,-99.99,0.000000,,2013-04-26 03:00:00,
2013-04-25 23:43:00,36.0,27.0,-100.00,East,90,1.0,-999.0,69,-99.99,,,-99.99,0.000000,,2013-04-26 03:43:00,
2013-04-25 23:53:00,36.0,27.0,-100.00,East,90,1.0,-999.0,69,-99.99,,,-99.99,0.000000,,2013-04-26 03:53:00,